“In life, you're either a passenger or a pilot. It’s your choice.”

WELCOME TO YOUR AVIATION DREAM!

What's new Up There Icon

WHAT’S NEW HERE?

4000+ aviation terms, acronyms and definitions!
Make your study a little easier with the aviation glossaries that gather over 4000 terms and acronyms extracted from weather, communications, technical and more general topics…
Partnership Icon

PARTNESHIP ANNOUNCEMENT

I am proud to announce a partnership with nizul Logo, study partner of every pilot who wants to consolidate their ground school knowledge and master their written examination.

Try Me Icon

ALL YOURS FOR 30 MINUTES!

Not sure you’d get along with a freelance instructor? How about giving it a try with a 30 minute flight?
My treat! All free.

Resources Tool Box

STUDENT RESOURCES

As a registered student training with me, you get access to a whole lot of files, tools, documents, aviation glossaries, videos, quizzes, sample tests, etc… 

Control Tower Icon

QUESTIONS? CHECK F.A.Q.

In aviation, the only stupid question is the one you didn’t ask. And there is a big chance yours has already been answered in the FAQ. Check it out!

Brain Icon

ARE YOU WIRED FOR FLYING?

Flying an aircraft is usually not the most difficult part of the “problem” and it takes a certain mindset to deal with the other aspects of a flight. Find out wether…

THEY DID IT!

Meet those who refused to be the passengers of their lives, and learn about their experience.

QUICK FACTS

Aviation is a world of serious numbers.
Here are my own, and they count as much as the other ones.

0
YEARS OF
WISDOM
0
YEARS OF
SKY FUN
0
AMAZING
STUDENTS
0
HOURS OF
PURE EXCITEMENT

Grow some wings,
Come fly with me!

Vancouver Island Weather

METARs and TAFs.
VICTORIA INTL (CYYJ)
METAR:

CYYJ 141200Z 26003KT 250V320 15SM SKC 06/M01 A3026 RMK SLP249

TAF:

TAF CYYJ 141138Z 1412/1512 VRB03KT P6SM SKC BECMG 1412/1414 30008KT RMK NXT FCST BY 141800Z

NANAIMO (CYCD)
METAR:

CYCD 140400Z 25004KT 15SM SKC 11/M03 A3030 RMK LAST STFD OBS/NEXT 141300Z SLP262

TAF:

TAF CYCD 131742Z 1318/1404 01008KT P6SM SKC BECMG 1402/1404 30006KT RMK NXT FCST BY 140000Z

LONG BEACH (CYAZ)
METAR:

CYAZ 140100Z 31015G21KT 15SM FEW250 16/M02 A3029 RMK CI1 CI TR LAST STFD OBS/NXT 141300UTC SLP261

TAF:

TAF CYAZ 131838Z 1319/1401 VRB03KT P6SM SKC BECMG 1319/1321 29010KT RMK NXT FCST WILL BE ISSUED AT 141445Z

For more in-depth weather information, please, check Collaborative Flight Planning Service

For all Runway conditions in CYYJ, please check

IIDS Web View

Windy’s Forecast & Observations